Regional Weather Roundup
Issued by NWS Grand Forks, ND

Home | Current Version | Previous Version | Graphics & Text | Print | Product List | Glossary On
Versions: 1 2 3 4 5 6 7 8 9 10 11 12 13 14 15 16 17 18 19 20 21 22 23 24 25 26 27 28 29 30 31 32 33 34 35 36 37 38 39 40 41 42 43 44 45 46 47 48 49 50
000
ASUS43 KFGF 250610
RWRFGF
PRAIRIE TO PINES  WEATHER ROUNDUP
NATIONAL WEATHER SERVICE EASTERN NORTH DAKOTA/GRAND FORKS ND
100 AM CDT MON MAY 25 2015

 **SATELLITE DATA USED TO AUGMENT SKY COVER AT AUTOMATED STATIONS**
 *****  WEATHER ACROSS EASTERN NORTH DAKOTA  *****

CITY           SKY/WX    TMP DP  RH WIND       PRES   REMARKS
GRAND FORKS    CLOUDY    58  51  78 N3        29.85F
6HR MIN TEMP:  57; 6HR MAX TEMP:  74;

GRAND FRKS AFB CLOUDY    53  50  89 N2        29.86F
GRAND FRKS NWS   N/A     57 N/A N/A MISG        N/A
DEVILS LAKE    CLOUDY    57  48  72 CALM      29.87F
6HR MIN TEMP:  57; 6HR MAX TEMP:  72;

FARGO          CLOUDY    62  54  74 E5        29.84F
WAHPETON ARPT  CLOUDY    55  54  94 NE6       29.81F
$$

 ***** WEATHER ACROSS CENTRAL AND WESTERN NORTH DAKOTA  *****

CITY           SKY/WX    TMP DP  RH WIND       PRES   REMARKS
BISMARCK       LGT RAIN  57  54  89 E6        29.90S
6HR MIN TEMP:  57; 6HR MAX TEMP:  65; 6HR PCP: TRACE;

MINOT          CLOUDY    56  47  71 CALM      29.89F
6HR MIN TEMP:  54; 6HR MAX TEMP:  72;

JAMESTOWN      LGT RAIN  57  55  93 NW3       29.86F
6HR MIN TEMP:  57; 6HR MAX TEMP:  64; 6HR PCP: TRACE;

MINOT AFB      MOCLDY    51  49  94 CALM      29.88F
GARRISON         N/A     60  51  72 CALM      29.89F
WILLISTON      MOCLDY    48  44  86 N3        29.91S
6HR MIN TEMP:  48; 6HR MAX TEMP:  75;

DICKINSON      CLOUDY    56  48  74 N3        29.88F
6HR MIN TEMP:  55; 6HR MAX TEMP:  64;

HETTINGER      CLOUDY    55  49  80 E7        29.89F
6HR MIN TEMP:  55; 6HR MAX TEMP:  61;

$$

 *****  OTHER AIRPORT OBSERVATIONS IN OUR AREA  *****

CITY           SKY/WX    TMP DP  RH WIND       PRES   REMARKS
WALHALLA         N/A     54  50  87 CALM      29.88F
GRAFTON AIRPOR FAIR      57  52  82 CALM      29.87S
VALLEY CITY AR CLOUDY    57  57 100 CALM      29.86F
CANDO          FAIR      57  54  88 N5        29.89F
CAVALIER APRT  FAIR      57  48  72 NW3       29.87F
GWINNER        NOT AVBL
SHEYENNE NWR     N/A     57  55  93 NE2       29.95
ROLLA          CLOUDY    54  46  76 NW3       29.92F
 ***** THE ABOVE OBSERVATIONS ARE NON NWS ARE NOT QUALITY
       CONTROLLED AND MAY MIS-REPORT RAIN FOR SNOW...
$$

  *****  WEATHER ACROSS NORTHERN MINNESOTA  *****

CITY           SKY/WX    TMP DP  RH WIND       PRES   REMARKS
FLAG ISLAND    CLOUDY    59  55  88 N6        29.86F
WARROAD        CLOUDY    55  52  88 CALM      29.88S
ROSEAU         CLOUDY    57  52  82 CALM      29.88S
HALLOCK        MOCLDY    55  48  76 N6        29.87S
THF RVR FALLS  CLOUDY    61  48  63 CALM      29.87F
6HR MIN TEMP:  61; 6HR MAX TEMP:  72;

BAUDETTE       CLOUDY    57  51  80 CALM      29.87F
6HR MIN TEMP:  57; 6HR MAX TEMP:  73;

WASKISH        CLOUDY    55  54  94 CALM      29.87F
CROOKSTON      CLOUDY    63  50  63 NE5       29.86F
STEPHEN NDAWN    N/A     57  48  72 NW1         N/A
GREENBUSH NDAW   N/A     57  55  94 W1          N/A
$$
  *****  WEATHER ACROSS CENTRAL AND WEST MINNESOTA  *****

CITY           SKY/WX    TMP DP  RH WIND       PRES   REMARKS
FOSSTON        CLOUDY    57  46  67 CALM      29.87F
BEMIDJI        CLOUDY    58  51  76 CALM      29.87F
PARK RAPIDS    LGT RAIN  58  54  86 NE7       29.85F
6HR MIN TEMP:  58; 6HR MAX TEMP:  68; 6HR PCP:  0.01;

ELBOW LAKE     LGT RAIN  57  56  97 NE8       29.80F
6HR MIN TEMP:  57; 6HR MAX TEMP:  59; 6HR PCP:  0.14;

WADENA         RAIN      55  54  94 NE9       29.83F
DETROIT LAKES  DRIZZLE   57  54  88 E5        29.86F
MOORHEAD       DRIZZLE   61  55  82 E5        29.85F
FERGUS FALLS   LGT RAIN  57  57 100 E8        29.82F
MORRIS MN      LGT RAIN  57  57 100 NE8       29.77F
STAPLES        LGT RAIN  55  55 100 NE5       29.82F
$$
  *****  WEATHER ELSEWHERE ACROSS MINNESOTA  *****

CITY           SKY/WX    TMP DP  RH WIND       PRES   REMARKS
DULUTH         LGT RAIN  58  56  93 E8        29.88F FOG
6HR MIN TEMP:  58; 6HR MAX TEMP:  66; 6HR PCP:  0.09;

INTRNTL FALLS  CLOUDY    58  49  72 NW3       29.86F
6HR MIN TEMP:  53; 6HR MAX TEMP:  74;

ELY            CLOUDY    57  46  67 CALM      29.90F
CLOQUET        LGT RAIN  57  55  94 E6        29.86F
WHEATON        RAIN      55  55 100 N6        29.81F
BRAINERD       LGT RAIN  57  56  96 NE8       29.83F FOG
6HR MIN TEMP:  57; 6HR MAX TEMP:  60; 6HR PCP:  0.03;

HIBBING        LGT RAIN  55  52  89 CALM      29.89F
6HR MIN TEMP:  55; 6HR MAX TEMP:  67; 6HR PCP: TRACE;

ALEXANDRIA     LGT RAIN  57  57 100 NE12      29.80F
6HR MIN TEMP:  57; 6HR MAX TEMP:  59; 6HR PCP:  0.11;

SAINT CLOUD    LGT RAIN  57  56  96 E6        29.77F
6HR MIN TEMP:  57; 6HR MAX TEMP:  58; 6HR PCP:  0.25;

MINNEAPOLIS    LGT RAIN  58  57  97 E9        29.75F
6HR MIN TEMP:  58; 6HR MAX TEMP:  60; 6HR PCP:  0.23;

$$

  *****  WEATHER ACROSS SOUTH DAKOTA  *****

CITY           SKY/WX    TMP DP  RH WIND       PRES   REMARKS
SIOUX FALLS    CLOUDY    59  58  96 N5        29.75F
6HR MIN TEMP:  59; 6HR MAX TEMP:  61; 6HR PCP: TRACE;

BROOKINGS      CLOUDY    57  55  94 NE3       29.79S
WATERTOWN      LGT RAIN  57  55  93 E5        29.79S FOG
6HR MIN TEMP:  57; 6HR MAX TEMP:  58; 6HR PCP:  0.38;

HURON          CLOUDY    57  57 100 NE8       29.77F FOG
6HR MIN TEMP:  57; 6HR MAX TEMP:  61;

SISSETON         N/A     58  58 100 NE8       29.79F
ABERDEEN       RAIN      57  56  96 N7        29.82F FOG
6HR MIN TEMP:  57; 6HR MAX TEMP:  63; 6HR PCP:  0.29;

MITCHELL       CLOUDY    59  59 100 NE3       29.77F
PIERRE         CLOUDY    57  56  96 E6        29.80S FOG
6HR MIN TEMP:  57; 6HR MAX TEMP:  59; 6HR PCP:  0.02;

MOBRIDGE       LGT RAIN  57  57 100 NE7       29.81F
RAPID CITY     MOCLDY    53  52  96 N13       29.85F
6HR MIN TEMP:  53; 6HR MAX TEMP:  57; 6HR PCP:  0.03;

$$

  *****  SOME WEATHER IN NEARBY STATES *****

CITY           SKY/WX    TMP DP  RH WIND       PRES   REMARKS
GLASGOW MT     PTCLDY    58  43  57 SE6       29.91S
6HR MIN TEMP:  58; 6HR MAX TEMP:  74;

GREAT FALLS MT CLEAR     50  42  74 E6        29.95F
6HR MIN TEMP:  50; 6HR MAX TEMP:  64;

CHEYENNE WY    CLOUDY    45  39  79 N8        29.89F
6HR MIN TEMP:  44; 6HR MAX TEMP:  53;

SCOTTSBLUFF NE CLOUDY    54  50  86 E10       29.85S
6HR MIN TEMP:  53; 6HR MAX TEMP:  65; 6HR PCP:  0.08;

OMAHA NE       CLOUDY    66  60  81 S5        29.77F
6HR MIN TEMP:  66; 6HR MAX TEMP:  70;

DES MOINES IA  LGT RAIN  65  62  90 S7        29.77F
6HR MIN TEMP:  65; 6HR MAX TEMP:  71; 6HR PCP: TRACE;

DAVENPORT IA   CLOUDY    67  64  90 S10       29.82F
6HR MIN TEMP:  67; 6HR MAX TEMP:  72; 6HR PCP:  0.23;

CHICAGO IL     MOCLDY    70  62  76 S12G20    29.89F
6HR MIN TEMP:  63; 6HR MAX TEMP:  70; 6HR PCP: TRACE;

EAU CLAIRE WI  LGT RAIN  57  55  93 E8        29.79F
6HR MIN TEMP:  57; 6HR MAX TEMP:  58; 6HR PCP:  0.18;

LA CROSSE WI   LGT RAIN  60  58  92 E5        29.77F FOG
6HR MIN TEMP:  60; 6HR MAX TEMP:  61; 6HR PCP:  0.25;

$$

  *****  SOME NATIONAL WEATHER *****

CITY           SKY/WX    TMP DP  RH WIND       PRES   REMARKS
LA GUARDIA NY  MOCLDY    67  50  54 S7        30.25S
6HR MIN TEMP:  67; 6HR MAX TEMP:  70;

RALEIGH NC     PTCLDY    66  57  72 SW5       30.33F
6HR MIN TEMP:  66; 6HR MAX TEMP:  76;

ATLANTA GA     PTCLDY    70  57  63 SE7       30.25F
6HR MIN TEMP:  70; 6HR MAX TEMP:  80;

NEW ORLEANS LA TSTM      77  72  84 S5        30.02F
6HR MIN TEMP:  73; 6HR MAX TEMP:  83; 6HR PCP:  0.10;

OKLAHOMA CITY  MOCLDY    64  63  96 SE12      29.87S
6HR MIN TEMP:  63; 6HR MAX TEMP:  71;

ALBUQUERQUE NM CLOUDY    55  44  66 E5        30.02S
6HR MIN TEMP:  51; 6HR MAX TEMP:  67; 6HR PCP:  0.10;

SALT LAKE CITY MOCLDY    55  48  77 SE5       29.93S
6HR MIN TEMP:  54; 6HR MAX TEMP:  65; 6HR PCP:  0.11;



USA.gov is the U.S. government's official web portal to all federal, state and local government web resources and services.